| time (UTC) | temp F | wind direction | speed knots | gust knots | rain 1hr in | rain 24hr in | rain mn in | humidity % | barometer mb |
| 20260902100014 | 66 | 80 | 2.6 | 6.1 | 0.00 | 1.08 | 1.01 | 98 | 1011.2 |
| 20260902094512 | 66 | 98 | 3.5 | 5.2 | 0.00 | 1.08 | 1.01 | 98 | 1012.0 |
| 20260902093012 | 67 | 330 | 0.9 | 4.3 | 0.00 | 1.08 | 1.01 | 98 | 1013.6 |
| 20260902091511 | 67 | 92 | 0.0 | 6.1 | 0.00 | 1.08 | 1.01 | 98 | 1013.5 |
| 20260902090010 | 67 | 260 | 5.2 | 12.2 | 0.00 | 1.08 | 1.01 | 98 | 1014.2 |
| 20260902084509 | 66 | 161 | 0.0 | 3.5 | 0.00 | 1.08 | 1.01 | 98 | 1012.3 |
| 20260902083009 | 67 | 168 | 1.7 | 5.2 | 0.00 | 1.08 | 1.01 | 98 | 1012.1 |
| 20260902081508 | 67 | 124 | 0.9 | 2.6 | 0.00 | 1.08 | 1.01 | 98 | 1012.0 |
| 20260902080008 | 67 | 101 | 2.6 | 5.2 | 0.00 | 1.08 | 1.01 | 98 | 1011.8 |
| 20260902074507 | 66 | 82 | 1.7 | 6.1 | 0.00 | 1.08 | 1.01 | 98 | 1011.3 |
| 20260902073006 | 66 | 73 | 3.5 | 9.6 | 0.00 | 1.08 | 1.01 | 98 | 1010.7 |
| 20260902071506 | 66 | 91 | 4.3 | 7.0 | 0.00 | 1.08 | 1.01 | 98 | 1011.0 |
| 20260902070006 | 66 | 74 | 2.6 | 7.0 | 0.07 | 1.08 | 1.01 | 98 | 1011.4 |
| 20260902064503 | 66 | 84 | 1.7 | 6.1 | 0.41 | 1.08 | 1.01 | 98 | 1012.3 |
| 20260902063002 | 66 | 31 | 4.3 | 8.7 | 0.67 | 1.08 | 1.01 | 97 | 1011.9 |
| 20260902061502 | 66 | 350 | 3.5 | 7.0 | 1.00 | 1.08 | 1.01 | 97 | 1012.5 |
| 20260902060113 | 66 | 335 | 3.5 | 9.6 | 0.94 | 1.01 | 0.94 | 96 | 1014.4 |
| 20260902054557 | 67 | 345 | 7.0 | 18.2 | 0.60 | 0.67 | 0.60 | 96 | 1014.8 |
| 20260902053102 | 67 | 312 | 9.6 | 18.2 | 0.34 | 0.41 | 0.34 | 95 | 1012.6 |
| 20260902051546 | 71 | 334 | 9.6 | 13.0 | 0.01 | 0.08 | 0.01 | 91 | 1012.7 |
| 20260902050037 | 73 | 352 | 2.6 | 4.3 | 0.00 | 0.07 | 0.00 | 87 | 1011.2 |
| 20260902044536 | 74 | 330 | 5.2 | 7.8 | 0.00 | 0.07 | 0.07 | 82 | 1011.9 |
| 20260902043036 | 73 | 282 | 1.7 | 4.3 | 0.00 | 0.07 | 0.07 | 83 | 1011.7 |
| 20260902041534 | 72 | 45 | 1.7 | 3.5 | 0.00 | 0.07 | 0.07 | 84 | 1011.4 |
| 20260902040033 | 72 | 40 | 2.6 | 6.1 | 0.00 | 0.07 | 0.07 | 84 | 1011.6 |
| 20260902034534 | 72 | 33 | 2.6 | 4.3 | 0.00 | 0.07 | 0.07 | 86 | 1011.5 |
| 20260902033048 | 72 | 37 | 3.5 | 6.1 | 0.00 | 0.07 | 0.07 | 85 | 1011.5 |
| 20260902031528 | 72 | 41 | 1.7 | 2.6 | 0.00 | 0.07 | 0.07 | 87 | 1012.0 |
| 20260902030027 | 72 | 68 | 0.9 | 2.6 | 0.00 | 0.07 | 0.07 | 85 | 1012.0 |
| 20260902024527 | 72 | 52 | 1.7 | 2.6 | 0.00 | 0.07 | 0.07 | 87 | 1011.7 |
| 20260902023027 | 72 | 66 | 1.7 | 2.6 | 0.00 | 0.07 | 0.07 | 86 | 1011.7 |
| 20260902021527 | 73 | 34 | 1.7 | 3.5 | 0.00 | 0.07 | 0.07 | 85 | 1011.9 |
| 20260902020031 | 74 | 43 | 2.6 | 5.2 | 0.00 | 0.07 | 0.07 | 82 | 1011.7 |
| 20260902014529 | 74 | 43 | 2.6 | 4.3 | 0.00 | 0.07 | 0.07 | 86 | 1011.8 |
| 20260902013025 | 73 | 34 | 2.6 | 4.3 | 0.00 | 0.07 | 0.07 | 88 | 1011.9 |
| 20260902011525 | 74 | 32 | 2.6 | 6.1 | 0.00 | 0.07 | 0.07 | 88 | 1012.0 |
| 20260902010023 | 76 | 27 | 2.6 | 5.2 | 0.00 | 0.07 | 0.07 | 85 | 1011.9 |
| 20260902004523 | 76 | 29 | 2.6 | 3.5 | 0.00 | 0.07 | 0.07 | 85 | 1011.8 |
| 20260902003022 | 76 | 44 | 1.7 | 2.6 | 0.00 | 0.07 | 0.07 | 84 | 1011.7 |
| 20260902001521 | 77 | 41 | 1.7 | 3.5 | 0.00 | 0.07 | 0.07 | 82 | 1011.8 |
| 20260902000020 | 78 | 37 | 1.7 | 3.5 | 0.00 | 0.07 | 0.07 | 83 | 1012.0 |
| 20260901234519 | 78 | 30 | 1.7 | 3.5 | 0.00 | 0.07 | 0.07 | 84 | 1012.2 |
| 20260901233028 | 78 | 29 | 1.7 | 3.5 | 0.00 | 0.07 | 0.07 | 83 | 1012.2 |
| 20260901231520 | 78 | 27 | 0.0 | 4.3 | 0.00 | 0.07 | 0.07 | 86 | 1012.3 |
| 20260901230017 | 78 | 36 | 0.9 | 2.6 | 0.00 | 0.07 | 0.07 | 86 | 1012.1 |
| 20260901224532 | 79 | 34 | 0.9 | 3.5 | 0.02 | 0.07 | 0.07 | 86 | 1012.2 |
| 20260901223017 | 78 | 69 | 0.0 | 0.0 | 0.02 | 0.07 | 0.07 | 86 | 1012.1 |
| 20260901221515 | 78 | 32 | 1.7 | 3.5 | 0.02 | 0.07 | 0.07 | 89 | 1012.2 |
| 20260901220017 | 78 | 91 | 0.0 | 1.7 | 0.06 | 0.07 | 0.07 | 87 | 1012.4 |
| 20260901214516 | 78 | 89 | 0.9 | 1.7 | 0.05 | 0.05 | 0.05 | 87 | 1012.2 |
| 20260901213016 | 78 | 83 | 0.0 | 1.7 | 0.05 | 0.05 | 0.05 | 89 | 1012.0 |
| 20260901211522 | 79 | 79 | 0.0 | 3.5 | 0.05 | 0.05 | 0.05 | 87 | 1012.2 |
| 20260901210013 | 81 | 271 | 0.0 | 1.7 | 0.01 | 0.01 | 0.01 | 77 | 1013.5 |
| 20260901204509 | 85 | 94 | 0.0 | 2.6 | 0.00 | 0.00 | 0.00 | 69 | 1012.5 |
| 20260901203009 | 86 | 105 | 1.7 | 4.3 | 0.00 | 0.00 | 0.00 | 65 | 1012.2 |
| 20260901201507 | 86 | 103 | 0.9 | 3.5 | 0.00 | 0.00 | 0.00 | 68 | 1012.2 |
| 20260901200006 | 85 | 98 | 0.0 | 0.9 | 0.00 | 0.00 | 0.00 | 68 | 1012.5 |
| 20260901194512 | 86 | 114 | 0.0 | 1.7 | 0.00 | 0.00 | 0.00 | 70 | 1012.6 |
| 20260901193002 | 86 | 97 | 0.9 | 2.6 | 0.00 | 0.00 | 0.00 | 67 | 1012.8 |
| 20260901191604 | 88 | 58 | 0.0 | 2.6 | 0.00 | 0.00 | 0.00 | 69 | 1013.3 |
| 20260901190112 | 89 | 110 | 0.9 | 2.6 | 0.00 | 0.00 | 0.00 | 68 | 1013.0 |
| 20260901184555 | 87 | 82 | 0.9 | 3.5 | 0.00 | 0.00 | 0.00 | 70 | 1012.9 |
| 20260901183053 | 85 | 91 | 1.7 | 3.5 | 0.00 | 0.00 | 0.00 | 71 | 1013.0 |
| 20260901181558 | 85 | 89 | 0.0 | 3.5 | 0.00 | 0.00 | 0.00 | 72 | 1013.3 |
| 20260901180050 | 86 | 43 | 0.0 | 2.6 | 0.00 | 0.00 | 0.00 | 71 | 1013.8 |
| 20260901174549 | 85 | 49 | 0.0 | 1.7 | 0.00 | 0.00 | 0.00 | 71 | 1013.8 |
| 20260901173057 | 84 | 44 | 0.0 | 3.5 | 0.00 | 0.00 | 0.00 | 73 | 1014.1 |
| 20260901171558 | 85 | 4 | 0.0 | 0.0 | 0.00 | 0.00 | 0.00 | 73 | 1014.2 |
| 20260901170049 | 85 | 63 | 0.0 | 2.6 | 0.00 | 0.00 | 0.00 | 75 | 1014.2 |
| 20260901164552 | 83 | 11 | 0.9 | 4.3 | 0.00 | 0.00 | 0.00 | 74 | 1014.0 |
| 20260901163043 | 83 | 8 | 0.0 | 0.0 | 0.00 | 0.00 | 0.00 | 79 | 1013.9 |
| 20260901161544 | 83 | 345 | 0.0 | 1.7 | 0.00 | 0.00 | 0.00 | 77 | 1014.0 |
| 20260901160040 | 83 | 42 | 0.0 | 0.9 | 0.00 | 0.00 | 0.00 | 79 | 1014.0 |
| 20260901154537 | 82 | 201 | 0.0 | 2.6 | 0.00 | 0.00 | 0.00 | 79 | 1014.0 |
| 20260901153034 | 80 | 202 | 0.0 | 2.6 | 0.00 | 0.00 | 0.00 | 82 | 1014.0 |
| 20260901151540 | 80 | 190 | 0.0 | 2.6 | 0.00 | 0.00 | 0.00 | 84 | 1014.0 |
| 20260901150031 | 79 | 185 | 0.0 | 2.6 | 0.00 | 0.00 | 0.00 | 86 | 1014.0 |
| 20260901144524 | 77 | 202 | 0.0 | 0.9 | 0.00 | 0.00 | 0.00 | 86 | 1013.9 |
| 20260901143024 | 76 | 205 | 0.0 | 3.5 | 0.00 | 0.00 | 0.00 | 89 | 1014.2 |
| 20260901141517 | 74 | 207 | 0.0 | 2.6 | 0.00 | 0.00 | 0.00 | 91 | 1014.3 |
| 20260901140011 | 72 | 192 | 0.0 | 0.0 | 0.00 | 0.00 | 0.00 | 93 | 1014.4 |
| 20260901134511 | 70 | 191 | 0.0 | 0.0 | 0.00 | 0.00 | 0.00 | 93 | 1014.6 |
| 20260901133010 | 70 | 150 | 0.0 | 0.0 | 0.00 | 0.00 | 0.00 | 92 | 1014.5 |
| 20260901131508 | 69 | 150 | 0.0 | 0.0 | 0.00 | 0.00 | 0.00 | 92 | 1014.5 |
| 20260901130008 | 68 | 150 | 0.0 | 0.0 | 0.00 | 0.00 | 0.00 | 92 | 1014.4 |
| 20260901124507 | 69 | 150 | 0.0 | 0.0 | 0.00 | 0.00 | 0.00 | 91 | 1014.2 |
| 20260901123005 | 68 | 150 | 0.0 | 0.0 | 0.00 | 0.00 | 0.00 | 91 | 1014.1 |
| 20260901121504 | 68 | 150 | 0.0 | 0.0 | 0.00 | 0.00 | 0.00 | 92 | 1014.0 |
| 20260901120002 | 68 | 185 | 0.0 | 0.0 | 0.00 | 0.00 | 0.00 | 92 | 1013.9 |
| 20260901114502 | 68 | 197 | 0.0 | 0.0 | 0.00 | 0.00 | 0.00 | 93 | 1013.7 |
| 20260901113002 | 68 | 197 | 0.0 | 0.0 | 0.00 | 0.00 | 0.00 | 93 | 1013.5 |
| 20260901111501 | 67 | 197 | 0.0 | 0.0 | 0.00 | 0.00 | 0.00 | 94 | 1013.4 |
| 20260901110002 | 67 | 197 | 0.0 | 0.0 | 0.00 | 0.00 | 0.00 | 94 | 1013.3 |
| 20260901104502 | 67 | 198 | 0.0 | 0.0 | 0.00 | 0.00 | 0.00 | 93 | 1013.4 |
| 20260901103108 | 67 | 198 | 0.0 | 0.0 | 0.00 | 0.00 | 0.00 | 94 | 1013.2 |
| 20260901101559 | 67 | 198 | 0.0 | 0.0 | 0.00 | 0.00 | 0.00 | 94 | 1013.1 |